sat.trackr.live / text

‹ back to catalog

STARLINK-36190

NORAD 67029 · 2025-293AC

PAYLOAD ACTIVE UNKNOWN

§ Identity

Operator
Country
US
Launch date
2025-12-10
Launch site
AFWTR
Launch vehicle
Mass (kg)
RCS (m²)

Purposes: comms

External: N2YO · Heavens-Above · Gunter

§ Orbital elements

Epoch: 2026-05-25T01:32:40.684992Z

Period
96.11 min
Inclination
70.0014°
Eccentricity
0.0003597
Mean motion
14.98335791 rev/d
Perigee alt
569.5 km
Apogee alt
574.5 km
Semi-major
6,950.2 km
B*
2.6013e-4
RAAN
262.0587°
Arg perigee
268.8090°
Mean anomaly
91.2657°
Rev number
2,632

§ Raw data

STARLINK-361901 67029U 25293AC  26145.06435978  .00003013  00000+0  26013-3 0  99962 67029  70.0014 262.0587 0003597 268.8090  91.2657 14.98335791 26328

JSON: /api/v1/satellites/67029 · /tle

For live sub-satellite position, see the globe view (requires WebGL).

§ Visibility from observer

Set your observer location to see the next 7 days of passes ≥ 10°. The values pass through the URL so the page stays shareable.

No JS? Fill the form by hand. The geolocation button needs JavaScript.